This is the latest recevied weather packets stored in our database for station/object KI4FRU. If no packets are shown the sender has not sent any weather packets the latest 10 day(s).
| Time | Temp. | Humidity | Pressure | Rain* | Wind** | Luminosity | Snow |
|---|---|---|---|---|---|---|---|
| 1777986897 | 16.67° C | 78% | 1055.3 hPa | 0 mm | - | 36 W/m² | - |
| 1777986596 | 16.67° C | 78% | 1055.2 hPa | 0 mm | - | 28 W/m² | - |
| 1777986293 | 16.67° C | 80% | 1055.3 hPa | 0 mm | - | 30 W/m² | - |
| 1777985991 | 16.11° C | 83% | 1055.1 hPa | 0 mm | - | 30 W/m² | - |
| 1777985688 | 16.11° C | 84% | 1055.3 hPa | 0 mm | - | 29 W/m² | - |
| 1777985384 | 16.11° C | 84% | 1055.2 hPa | 0 mm | - | 29 W/m² | - |
| 1777985081 | 15.56° C | 85% | 1055.2 hPa | 0 mm | - | 28 W/m² | - |
| 1777984777 | 15.56° C | 86% | 1055.2 hPa | 0 mm | - | 28 W/m² | - |
| 1777984474 | 15° C | 86% | 1055.2 hPa | 0 mm | - | 28 W/m² | - |
| 1777984170 | 15° C | 89% | 1055.2 hPa | 0 mm | - | 27 W/m² | - |
| 1777983867 | 14.44° C | 88% | 1055.2 hPa | 0 mm | - | 27 W/m² | - |
| 1777983564 | 13.89° C | 92% | 1054.9 hPa | 0 mm | - | 29 W/m² | - |
| 1777983261 | 13.33° C | 91% | 1055.1 hPa | 0 mm | - | 78 W/m² | - |
| 1777982957 | 13.33° C | 93% | 1055.1 hPa | 0 mm | - | 27 W/m² | - |
| 1777982653 | 12.78° C | 94% | 1054.9 hPa | 0 mm | - | 51 W/m² | - |
| 1777982352 | 12.22° C | 94% | 1054.9 hPa | 0 mm | - | 98 W/m² | - |
| 1777982049 | 11.67° C | 95% | 1055 hPa | 0 mm | - | 25 W/m² | - |
| 1777981747 | 11.67° C | 95% | 1054.8 hPa | 0 mm | - | 21 W/m² | - |
| 1777981443 | 11.67° C | 94% | 1054.9 hPa | 0 mm | - | 20 W/m² | - |
| 1777981140 | 11.67° C | 94% | 1054.9 hPa | 0 mm | - | 19 W/m² | - |
| 1777980836 | 11.67° C | 94% | 1054.6 hPa | 0 mm | - | 18 W/m² | - |
| 1777980532 | 11.67° C | 94% | 1054.8 hPa | 0 mm | - | 16 W/m² | - |
| 1777980230 | 11.67° C | 93% | 1054.7 hPa | 0 mm | - | 15 W/m² | - |
| 1777979925 | 11.67° C | 93% | 1054.6 hPa | 0 mm | - | 14 W/m² | - |
| 1777979621 | 11.67° C | 92% | 1054.5 hPa | 0 mm | - | 15 W/m² | - |
* Rain latest hour (hover to see other rain measurements)
** Current wind speed in m/s (hover to see current wind gust speed)